Location: Unspecified
(0.0000°N, 0.0000°E)
Time: 04:51:25
(UTC+00:00)

Transit 2A - All Passes

Search period start: 25 April 2018 00:00
Search period end: 05 May 2018 00:00
Orbit: 598 x 961 km, 66.7° (Epoch: 24 April)

Date Brightness Start Highest point End Pass type
(mag) Time Alt. Az. Time Alt. Az. Time Alt. Az.
25 Apr - 04:07:00 10° S 04:12:36 33° ESE 04:18:06 10° NE visible
25 Apr - 05:50:42 10° WSW 05:55:36 24° WNW 06:00:24 10° NNW daylight
25 Apr - 16:42:25 10° NNW 16:46:43 81° ENE 16:51:07 10° SSE daylight
26 Apr - 03:33:58 10° SSE 03:38:33 21° ESE 03:43:04 10° ENE visible
26 Apr - 05:15:48 10° SW 05:21:35 37° WNW 05:27:14 10° N visible
26 Apr - 16:08:39 10° N 16:12:43 42° ENE 16:16:52 10° SE daylight
27 Apr - 03:01:53 10° SE 03:04:28 13° ESE 03:07:01 10° E visible
27 Apr - 04:41:20 10° SSW 04:47:35 59° WNW 04:53:39 10° N visible
27 Apr - 15:35:19 10° NNE 15:38:42 23° ENE 15:42:10 10° ESE daylight
27 Apr - 17:19:27 10° W 17:21:36 13° WSW 17:23:46 10° SW daylight
28 Apr - 04:07:10 10° SSW 04:13:34 89° ESE 04:19:46 10° NNE visible
28 Apr - 15:02:54 10° NE 15:04:43 12° ENE 15:06:32 10° E daylight
28 Apr - 16:44:01 10° NW 16:47:32 24° WSW 16:51:09 10° SSW daylight
29 Apr - 03:33:18 10° S 03:39:32 57° ESE 03:45:36 10° NNE visible
29 Apr - 05:19:54 10° W 05:22:31 13° WNW 05:25:05 10° NW visible
29 Apr - 16:09:24 10° NW 16:13:30 45° WSW 16:17:45 10° S daylight
30 Apr - 02:59:43 10° S 03:05:29 36° ESE 03:11:07 10° NE visible
30 Apr - 04:43:53 10° WSW 04:48:28 21° WNW 04:52:58 10° NNW visible
30 Apr - 15:35:11 10° NNW 15:39:29 87° WSW 15:43:56 10° SSE daylight
01 May - 02:26:33 10° SSE 02:31:26 23° ESE 02:36:13 10° ENE visible
01 May - 04:08:50 10° SW 04:14:28 33° WNW 04:19:55 10° N visible
01 May - 15:01:20 10° N 15:05:29 48° ENE 15:09:46 10° SE daylight
02 May - 01:54:08 10° SE 01:57:21 14° ESE 02:00:31 10° E visible
02 May - 03:34:17 10° SW 03:40:27 53° WNW 03:46:25 10° N visible
02 May - 14:27:54 10° NNE 14:31:30 26° ENE 14:35:11 10° SE daylight
02 May - 16:12:48 10° W 16:14:23 12° WSW 16:16:00 10° SW daylight
03 May - 03:00:03 10° SSW 03:06:26 83° WNW 03:12:36 10° NNE visible
03 May - 13:55:09 10° NE 13:57:30 14° ENE 13:59:52 10° ESE daylight
03 May - 15:37:01 10° WNW 15:40:19 21° WSW 15:43:45 10° SSW daylight
04 May - 02:26:07 10° S 02:32:25 64° ESE 02:38:30 10° NNE visible
04 May - 04:13:45 10° W 04:15:22 11° WNW 04:16:59 10° NW visible
04 May - 15:02:15 10° NW 15:06:17 39° WSW 15:10:28 10° S daylight
